| time (UTC) | temp F | wind direction | speed MPH | gust MPH | rain 1hr in | rain 24hr in | rain mn in | humidity % | barometer mb |
| 20260504081527 | 0 | 0.0 | 0.0 | 0.00 | 0.00 | 0.00 | 1016.3 | ||
| 20260504044537 | 0 | 0.0 | 0.0 | 0.00 | 0.00 | 0.00 | 1016.1 | ||
| 20260504043034 | 0 | 0.0 | 0.0 | 0.00 | 0.00 | 0.00 | 1016.0 | ||
| 20260504041529 | 0 | 0.0 | 0.0 | 0.00 | 0.00 | 0.00 | 1015.9 | ||
| 20260504040034 | 0 | 0.0 | 0.0 | 0.00 | 0.00 | 0.00 | 1015.7 | ||
| 20260504034538 | 0 | 0.0 | 0.0 | 0.00 | 0.00 | 0.00 | 1015.5 | ||
| 20260504033041 | 0 | 0.0 | 0.0 | 0.00 | 0.00 | 0.00 | 1015.5 | ||
| 20260504031532 | 0 | 0.0 | 0.0 | 0.00 | 0.00 | 0.00 | 1015.3 | ||
| 20260504030030 | 0 | 0.0 | 0.0 | 0.00 | 0.00 | 0.00 | 1015.3 | ||
| 20260504024533 | 0 | 0.0 | 0.0 | 0.00 | 0.00 | 0.00 | 1015.3 | ||
| 20260504023030 | 0 | 0.0 | 0.0 | 0.00 | 0.00 | 0.00 | 1015.2 | ||
| 20260504021534 | 0 | 0.0 | 0.0 | 0.00 | 0.00 | 0.00 | 1015.3 | ||
| 20260504020028 | 0 | 0.0 | 0.0 | 0.00 | 0.00 | 0.00 | 1015.1 | ||
| 20260504014530 | 0 | 0.0 | 0.0 | 0.00 | 0.00 | 0.00 | 1015.0 | ||
| 20260504013037 | 0 | 0.0 | 0.0 | 0.00 | 0.00 | 0.00 | 1015.0 | ||
| 20260504011532 | 0 | 0.0 | 0.0 | 0.00 | 0.00 | 0.00 | 1014.8 | ||
| 20260504010041 | 0 | 0.0 | 0.0 | 0.00 | 0.00 | 0.00 | 1014.6 | ||
| 20260504004531 | 0 | 0.0 | 0.0 | 0.00 | 0.00 | 0.00 | 1014.5 | ||
| 20260504003030 | 0 | 0.0 | 0.0 | 0.00 | 0.00 | 0.00 | 1014.3 | ||
| 20260504001532 | 0 | 0.0 | 0.0 | 0.00 | 0.00 | 0.00 | 1014.1 | ||
| 20260504000031 | 0 | 0.0 | 0.0 | 0.00 | 0.00 | 0.00 | 1014.0 | ||
| 20260503234525 | 60 | 219 | 12.0 | 17.0 | 0.00 | 0.00 | 0.00 | 48 | 1014.0 |
| 20260503233026 | 60 | 238 | 12.0 | 18.0 | 0.00 | 0.00 | 0.00 | 48 | 1013.8 |
| 20260503231514 | 60 | 245 | 13.0 | 21.0 | 0.00 | 0.00 | 0.00 | 46 | 1013.8 |
| 20260503230018 | 60 | 269 | 11.0 | 18.0 | 0.00 | 0.00 | 0.00 | 45 | 1013.7 |
| 20260503224527 | 60 | 257 | 12.0 | 22.0 | 0.00 | 0.00 | 0.00 | 47 | 1013.9 |
| 20260503223025 | 60 | 275 | 11.0 | 19.0 | 0.00 | 0.00 | 0.00 | 44 | 1013.7 |
| 20260503221532 | 60 | 255 | 17.0 | 25.0 | 0.00 | 0.00 | 0.00 | 46 | 1013.9 |
| 20260503220018 | 59 | 249 | 15.0 | 26.0 | 0.00 | 0.00 | 0.00 | 45 | 1013.8 |
| 20260503214517 | 59 | 246 | 17.0 | 22.0 | 0.00 | 0.00 | 0.00 | 45 | 1013.8 |
| 20260503213030 | 59 | 291 | 9.0 | 21.0 | 0.00 | 0.00 | 0.00 | 46 | 1013.8 |
| 20260503211525 | 59 | 270 | 17.0 | 23.0 | 0.00 | 0.00 | 0.00 | 46 | 1013.8 |
| 20260503210026 | 58 | 267 | 18.0 | 24.0 | 0.00 | 0.00 | 0.00 | 50 | 1013.8 |
| 20260503204523 | 58 | 284 | 12.0 | 21.0 | 0.00 | 0.00 | 0.00 | 48 | 1013.9 |
| 20260503203020 | 58 | 265 | 13.0 | 19.0 | 0.00 | 0.00 | 0.00 | 48 | 1014.0 |
| 20260503201525 | 57 | 290 | 15.0 | 25.0 | 0.00 | 0.00 | 0.00 | 50 | 1014.1 |
| 20260503200012 | 57 | 242 | 16.0 | 28.0 | 0.00 | 0.00 | 0.00 | 49 | 1014.2 |
| 20260503194523 | 57 | 247 | 20.0 | 33.0 | 0.00 | 0.00 | 0.00 | 47 | 1014.0 |
| 20260503193028 | 56 | 246 | 13.0 | 29.0 | 0.00 | 0.00 | 0.00 | 47 | 1014.3 |
| 20260503191520 | 56 | 249 | 18.0 | 27.0 | 0.00 | 0.00 | 0.00 | 47 | 1014.3 |
| 20260503190017 | 56 | 259 | 17.0 | 25.0 | 0.00 | 0.00 | 0.00 | 49 | 1014.4 |
| 20260503184522 | 55 | 250 | 14.0 | 27.0 | 0.00 | 0.00 | 0.00 | 47 | 1014.6 |
| 20260503183025 | 55 | 279 | 11.0 | 22.0 | 0.00 | 0.00 | 0.00 | 47 | 1014.6 |
| 20260503181528 | 54 | 258 | 18.0 | 27.0 | 0.00 | 0.00 | 0.00 | 49 | 1014.8 |
| 20260503180029 | 54 | 271 | 19.0 | 27.0 | 0.00 | 0.00 | 0.00 | 49 | 1014.9 |
| 20260503174525 | 53 | 276 | 13.0 | 26.0 | 0.00 | 0.00 | 0.00 | 53 | 1015.0 |
| 20260503173036 | 53 | 272 | 10.0 | 25.0 | 0.00 | 0.00 | 0.00 | 51 | 1015.2 |
| 20260503171516 | 52 | 269 | 11.0 | 22.0 | 0.00 | 0.00 | 0.00 | 51 | 1015.1 |